Flight Information

DEPARTURE
SAN DIEGO, CA
Elevation:
16
Runways:
9/27 - 9400x200 - ASPH-CONC-E
ATIS:
134.8 619-298-0997
Clearance Delivery:
125.9
Ground:
123.9
Tower:
LINDBERGH TOWER 118.3
DESTINATION
,
Elevation:
TPA:
1000 (est.)


6756 NM74° True-13° Var61° HDG

Flight Plan:
(click to file on line)

1. Type
2. Aircraft Identification
3. Aircraft Type / Special Equipment
4. True Airspeed
kts
5. Departure Airport
(ICAO code)
6. Arriving Airport
(ICAO code)
7. Cruising Altitude
ft
8. Alternate Airport
(ICAO code)
9. Route of Flight
10. Remarks


00:00:00 Departure ATIS: Destination ATIS:

Clearance Limit:
Route:
Altitude: Expect in minutes
Frequency:
Transponder: (7500 Hijack / 7600 Lost Comms / 7700 Emergency)


KSAN 261451Z VRB03KT 7SM SCT007 18/15 A3000 RMK AO2 SLP157 T01780150 53012
Time: 2022-06-26T14:51:00Z
1656255369
Winds: variable
Visibility: 7.0 sm
Clouds (AGL): SCT 700
Temperature: 17.8 C
Dew Point: 15.0 C
Pressure: 30.0 in Hgbr


Notes:

Data extracted from FAA Digital Chart Supplement. Effective: 0901Z Thursday, 27 JAN 2022 to 0900z Thursday, 24 MAR 2022
Current ATIS data is provided courtisy of PilotEdge.